"2016-03-05 00:00:00",1429851,2.079,155.3,3.498,0.177,11.7,104.346,10.4,11.42,28.46,0,110.4,13.19,11.19,117.3
"2016-03-05 00:00:30",1429852,2.092,160.9,2.66,0.154,11.86,104.3463,10.4,11.42,28.41,0,110.4,13.19,11.19,122.9
"2016-03-05 00:01:00",1429853,2.155,158.8,1.771,0.127,12.16,104.3449,10.4,11.43,28.4,0,110.4,13.19,11.18,120.8
"2016-03-05 00:01:30",1429854,2.187,149.7,5.459,0.117,12.29,104.3353,10.37,11.41,28.38,0,110.4,13.19,11.16,111.7
"2016-03-05 00:02:00",1429855,2.623,150.9,3.974,0.267,12.5,104.3319,10.36,11.41,28.41,0,110.4,13.19,11.15,112.9
"2016-03-05 00:02:30",1429856,3.415,165.9,9.26,1.231,14.33,104.3316,10.36,11.57,28.67,0,110.4,13.15,11.15,127.9
"2016-03-05 00:03:00",1429857,4.296,164.4,6.947,1.374,16.56,104.3316,10.36,11.65,28.77,0,110.4,13.15,11.15,126.4
"2016-03-05 00:03:30",1429858,3.94,169.7,6.976,1.409,16.47,104.3316,10.36,11.64,28.81,0,110.4,13.15,11.15,131.7
"2016-03-05 00:04:00",1429859,2.406,157.8,7.649,1.059,13.16,104.3316,10.36,11.5,28.74,0,110.4,13.15,11.15,119.8
"2016-03-05 00:04:30",1429860,1.824,155.3,3.098,0.122,11.65,104.3311,10.36,11.38,28.63,0,110.4,13.19,11.15,117.3
"2016-03-05 00:05:00",1429861,1.582,158.3,5.289,0.108,11.5,104.3269,10.35,11.38,28.67,0,110.4,13.19,11.14,120.3
"2016-03-05 00:05:30",1429862,1.709,163.9,6.973,0.172,11.76,104.3215,10.34,11.37,28.69,0,110.4,13.19,11.12,125.9
"2016-03-05 00:06:00",1429863,1.723,161.7,3.222,0.086,11.97,104.3184,10.33,11.36,28.72,0,110.4,13.2,11.12,123.7
"2016-03-05 00:06:30",1429864,1.832,170.6,3.86,0.135,12.29,104.3158,10.32,11.37,28.74,0,110.4,13.2,11.11,132.6
"2016-03-05 00:07:00",1429865,2.347,161.1,2.234,0.143,12.37,104.3144,10.32,11.35,28.73,0,110.4,13.19,11.11,123.1
"2016-03-05 00:07:30",1429866,2.48,165.4,3.103,0.13,12.62,104.3125,10.31,11.38,28.7,0,110.4,13.19,11.10,127.4
"2016-03-05 00:08:00",1429867,4.624,177.5,7.749,1.366,16.22,104.3113,10.31,11.58,28.86,0,110.4,13.14,11.10,139.5
"2016-03-05 00:08:30",1429868,5.371,172.1,6.641,1.217,16.36,104.3113,10.31,11.61,28.93,0,110.4,13.14,11.10,134.1
"2016-03-05 00:09:00",1429869,4.249,170.4,6.772,1.521,14.72,104.308,10.3,11.52,28.88,0,110.4,13.14,11.09,132.4
"2016-03-05 00:09:30",1429870,3.082,169.4,3.944,0.161,12.13,104.2998,10.28,11.35,28.68,0,110.4,13.19,11.07,131.4
"2016-03-05 00:10:00",1429871,2.953,170.6,0.918,0.075,11.84,104.2984,10.28,11.35,28.69,0,110.4,13.19,11.07,132.6
"2016-03-05 00:10:30",1429872,3.015,167,3.165,0.238,11.85,104.2978,10.28,11.34,28.66,0,110.4,13.19,11.06,129.0
"2016-03-05 00:11:00",1429873,2.817,159.6,2.888,0.123,12.02,104.2978,10.28,11.34,28.74,0,110.4,13.19,11.06,121.6
"2016-03-05 00:11:30",1429874,2.914,157,3.338,0.104,12.33,104.2978,10.28,11.32,28.78,0,110.4,13.19,11.06,119.0
"2016-03-05 00:12:00",1429875,3.919,165.9,7.002,1.284,14.11,104.2978,10.28,11.44,28.85,0,110.4,13.15,11.06,127.9
"2016-03-05 00:12:30",1429876,4.837,166.7,7.93,1.414,15.7,104.2978,10.28,11.58,28.95,0,110.4,13.15,11.06,128.7
"2016-03-05 00:13:00",1429877,3.864,159.7,6.724,1.249,13.82,104.2978,10.28,11.49,28.95,0,110.4,13.15,11.06,121.7
"2016-03-05 00:13:30",1429878,4.721,165,7.554,1.408,14.75,104.2978,10.28,11.47,28.88,0,110.4,13.15,11.06,127.0
"2016-03-05 00:14:00",1429879,3.958,159.7,7.858,1.269,13.37,104.2978,10.28,11.43,28.82,0,110.4,13.15,11.06,121.7
"2016-03-05 00:14:30",1429880,3.249,156.4,2.711,0.099,11.85,104.2978,10.28,11.33,28.72,0,110.4,13.19,11.06,118.4
"2016-03-05 00:15:00",1429881,2.95,156.1,2.466,0.092,11.89,104.2978,10.28,11.31,28.8,0,110.4,13.19,11.06,118.1
"2016-03-05 00:15:30",1429882,2.818,149.2,2.355,0.071,12.07,104.2978,10.28,11.32,28.81,0,110.4,13.19,11.06,111.2
"2016-03-05 00:16:00",1429883,2.814,148,2.966,0.102,12.34,104.2978,10.28,11.31,28.86,0,110.4,13.2,11.06,110.0
"2016-03-05 00:16:30",1429884,4.192,153.1,7.051,1.458,14.86,104.2978,10.28,11.51,29.06,0,110.4,13.15,11.06,115.1
"2016-03-05 00:17:00",1429885,4.726,157.6,6.875,1.317,16.06,104.2978,10.28,11.53,28.97,0,110.4,13.15,11.06,119.6
"2016-03-05 00:17:30",1429886,3.575,148.4,6.901,1.394,13.64,104.2978,10.28,11.43,28.85,0,110.4,13.15,11.06,110.4
"2016-03-05 00:18:00",1429887,2.943,138.3,3.198,0.578,12.09,104.2978,10.28,11.33,28.65,0,110.4,13.15,11.06,100.3
"2016-03-05 00:18:30",1429888,3.842,146.2,7.475,1.451,14.52,104.2978,10.28,11.51,28.75,0,110.4,13.15,11.06,108.2
"2016-03-05 00:19:00",1429889,3.185,140.1,3.667,0.687,12.29,104.2978,10.28,11.36,28.65,0,110.4,13.15,11.06,102.1
"2016-03-05 00:19:30",1429890,2.91,138.2,2.389,0.104,12.1,104.2978,10.28,11.32,28.53,0,110.4,13.2,11.06,100.2
"2016-03-05 00:20:00",1429891,2.669,144.3,1.897,0.088,12.16,104.2978,10.28,11.32,28.55,0,110.4,13.2,11.06,106.3
"2016-03-05 00:20:30",1429892,2.826,142.8,4.027,0.13,12.48,104.2978,10.28,11.36,28.62,0,110.4,13.2,11.06,104.8
"2016-03-05 00:21:00",1429893,4.516,155,7.957,1.396,15.98,104.2978,10.28,11.49,28.76,0,110.4,13.15,11.06,117.0
"2016-03-05 00:21:30",1429894,4.179,151.3,8.26,1.483,14.8,104.2955,10.27,11.49,28.76,0,110.4,13.15,11.06,113.3
"2016-03-05 00:22:00",1429895,3.35,147,6.144,1.181,13.34,104.2922,10.26,11.36,28.62,0,110.4,13.15,11.05,109.0
"2016-03-05 00:22:30",1429896,2.819,143.8,2.854,0.12,12,104.2893,10.25,11.32,28.56,0,110.4,13.2,11.04,105.8
"2016-03-05 00:23:00",1429897,3.783,151.1,7.46,1.343,13.91,104.2845,10.24,11.41,28.66,0,110.4,13.15,11.03,113.1
"2016-03-05 00:23:30",1429898,3.909,152.3,8.07,1.37,14.39,104.284,10.24,11.38,28.64,0,110.4,13.15,11.03,114.3
"2016-03-05 00:24:00",1429899,2.793,147.5,3.84,0.081,12.4,104.2809,10.23,11.28,28.5,0,110.4,13.19,11.02,109.5
"2016-03-05 00:24:30",1429900,2.897,153.2,2.476,0.052,12.43,104.28,10.23,11.28,28.54,0,110.4,13.19,11.02,115.2
"2016-03-05 00:25:00",1429901,3.56,162.9,8.65,1.389,14.05,104.2766,10.22,11.38,28.71,0,110.4,13.14,11.01,124.9
"2016-03-05 00:25:30",1429902,3.666,163,7.442,1.365,14.8,104.2693,10.2,11.52,28.89,0,110.4,13.14,10.99,125.0
"2016-03-05 00:26:00",1429903,4.215,160.2,8.1,1.448,14.67,104.2643,10.19,11.4,28.76,0,110.4,13.14,10.98,122.2
"2016-03-05 00:26:30",1429904,2.889,158.5,0.89,0.084,11.97,104.2651,10.19,11.28,28.64,0,110.4,13.19,10.98,120.5
"2016-03-05 00:27:00",1429905,3.064,161.9,2.222,0.247,12.14,104.2654,10.19,11.27,28.69,0,110.4,13.19,10.98,123.9
"2016-03-05 00:27:30",1429906,4.306,162.9,7.781,1.38,15.02,104.2657,10.19,11.41,28.86,0,110.4,13.14,10.98,124.9
"2016-03-05 00:28:00",1429907,3.679,160.2,7.116,1.282,14.15,104.2612,10.18,11.35,28.77,0,110.4,13.14,10.97,122.2
"2016-03-05 00:28:30",1429908,3.068,161.6,3.566,0.542,13.21,104.2503,10.15,11.31,28.78,0,110.4,13.15,10.94,123.6
"2016-03-05 00:29:00",1429909,4.284,166.7,7.608,1.425,14.98,104.2368,10.12,11.35,28.89,0,110.4,13.14,10.91,128.7
"2016-03-05 00:29:30",1429910,4.178,170.1,7.451,1.389,15.05,104.2357,10.12,11.42,29,0,110.4,13.15,10.90,132.1
"2016-03-05 00:30:00",1429911,4.005,167.7,6.357,1.339,13.95,104.2321,10.11,11.35,28.94,0,110.4,13.15,10.89,129.7
"2016-03-05 00:30:30",1429912,3.072,165,0.695,0.064,12.3,104.2152,10.06,11.18,28.77,0,110.4,13.2,10.85,127.0
"2016-03-05 00:31:00",1429913,3.444,163.5,1.484,0.106,12.09,104.2054,10.04,11.16,28.79,0,110.4,13.2,10.83,125.5
"2016-03-05 00:31:30",1429914,4.053,166.8,7.21,1.324,13.89,104.2032,10.03,11.21,28.96,0,110.4,13.15,10.82,128.8
"2016-03-05 00:32:00",1429915,4.08,167.8,6.198,1.207,14.34,104.1855,9.99,11.27,29.13,0,110.4,13.15,10.78,129.8
"2016-03-05 00:32:30",1429916,4.885,171.2,7.581,1.427,15.82,104.178,9.97,11.25,29.18,0,110.4,13.15,10.76,133.2
"2016-03-05 00:33:00",1429917,4.028,167.9,6.456,1.236,14.56,104.1719,9.95,11.26,29.28,0,110.4,13.15,10.74,129.9
"2016-03-05 00:33:30",1429918,4.94,170.1,7.565,1.418,15.67,104.15,9.9,11.23,29.34,0,110.4,13.15,10.68,132.1
"2016-03-05 00:34:00",1429919,4.471,162.3,6.925,1.403,14.1,104.1512,9.9,11.11,29.13,0,110.4,13.15,10.69,124.3
"2016-03-05 00:34:30",1429920,3.228,156.6,1.169,0.056,12.25,104.1439,9.88,10.98,28.99,0,110.4,13.2,10.67,118.6
"2016-03-05 00:35:00",1429921,3.291,156.8,1.334,0.079,12.28,104.1271,9.84,10.94,29.03,0,110.4,13.2,10.63,118.8
"2016-03-05 00:35:30",1429922,3.337,154.6,2.207,0.093,12.45,104.1218,9.83,10.93,29.14,0,110.4,13.2,10.61,116.6
"2016-03-05 00:36:00",1429923,4.78,163,7.284,1.427,15.11,104.1198,9.82,11.02,29.37,0,110.4,13.16,10.61,125.0
"2016-03-05 00:36:30",1429924,5.128,160.3,7.801,1.396,15.65,104.1072,9.79,11.1,29.46,0,110.4,13.16,10.57,122.3
"2016-03-05 00:37:00",1429925,4.789,160.6,6.965,1.352,15.4,104.1042,9.78,11.05,29.47,0,110.4,13.16,10.57,122.6
"2016-03-05 00:37:30",1429926,4.371,156.2,7.459,1.398,14.79,104.0932,9.75,11,29.47,0,110.4,13.16,10.54,118.2
"2016-03-05 00:38:00",1429927,4.191,154.2,6.351,1.149,13.66,104.095,9.76,10.93,29.46,0,110.4,13.16,10.54,116.2
"2016-03-05 00:38:30",1429928,3.425,149.9,0.764,0.111,12.01,104.0865,9.74,10.79,29.41,0,110.4,13.2,10.52,111.9
"2016-03-05 00:39:00",1429929,3.213,153.4,2.236,0.09,12.29,104.0792,9.72,10.78,29.43,0,110.4,13.21,10.50,115.4
"2016-03-05 00:39:30",1429930,3.384,153.9,1.076,0.123,12.41,104.064,9.68,10.78,29.45,0,110.4,13.21,10.46,115.9
"2016-03-05 00:40:00",1429931,4.602,156.7,7.611,1.371,14.25,104.0626,9.67,10.87,29.45,0,110.3,13.16,10.46,118.7
"2016-03-05 00:40:30",1429932,5.014,157.7,7.371,1.404,15.16,104.0623,9.67,10.89,29.55,0,110.3,13.16,10.46,119.7
"2016-03-05 00:41:00",1429933,4.859,161.1,7.574,1.415,15.73,104.062,9.67,10.89,29.56,0,110.3,13.16,10.46,123.1
"2016-03-05 00:41:30",1429934,4.858,159.1,8.46,1.447,15.4,104.0581,9.66,10.93,29.62,0,110.3,13.15,10.45,121.1
"2016-03-05 00:42:00",1429935,4.049,149.5,6.367,1.226,13.72,104.0516,9.65,10.77,29.47,0,110.3,13.15,10.43,111.5
"2016-03-05 00:42:30",1429936,3.214,147.8,1.809,0.091,12.09,104.0493,9.64,10.7,29.34,0,110.3,13.2,10.43,109.8
"2016-03-05 00:43:00",1429937,3.244,151.7,1.055,0.048,12.23,104.0448,9.63,10.68,29.4,0,110.3,13.2,10.41,113.7
"2016-03-05 00:43:30",1429938,3.121,151.6,1.057,0.056,12.42,104.0406,9.62,10.68,29.4,0,110.3,13.2,10.40,113.6
"2016-03-05 00:44:00",1429939,3.916,154.3,6.226,1.308,14.28,104.0423,9.62,10.77,29.42,0,110.3,13.16,10.41,116.3
"2016-03-05 00:44:30",1429940,4.603,157.7,7.742,1.39,16.27,104.0366,9.61,10.88,29.56,0,110.3,13.16,10.39,119.7
"2016-03-05 00:45:00",1429941,4.162,156.7,7.71,1.373,16.01,104.031,9.59,10.91,29.55,0,110.3,13.16,10.38,118.7
"2016-03-05 00:45:30",1429942,4.428,156,7.319,1.393,15.64,104.0296,9.59,10.84,29.35,0,110.3,13.16,10.38,118.0
"2016-03-05 00:46:00",1429943,3.544,155.2,6.445,1.27,13.74,104.0284,9.59,10.74,29.17,0,110.3,13.16,10.37,117.2
"2016-03-05 00:46:30",1429944,2.926,152,2.177,0.132,12.22,104.0284,9.59,10.63,29.04,0,110.3,13.21,10.37,114.0
"2016-03-05 00:47:00",1429945,2.909,155.7,1.406,0.07,12.24,104.0284,9.59,10.64,29.1,0,110.3,13.21,10.37,117.7
"2016-03-05 00:47:30",1429946,3.035,153.7,1.694,0.09,12.56,104.0284,9.59,10.64,29.13,0,110.3,13.22,10.37,115.7
"2016-03-05 00:48:00",1429947,3.716,159.1,6.484,1.193,14.2,104.0284,9.59,10.71,29.1,0,110.3,13.17,10.37,121.1
"2016-03-05 00:48:30",1429948,4.562,165.3,8.45,1.375,16.23,104.0282,9.59,10.85,29.22,0,110.3,13.17,10.37,127.3
"2016-03-05 00:49:00",1429949,4.903,165.3,6.843,1.349,16.95,104.0225,9.57,10.82,29.18,0,110.3,13.17,10.36,127.3
"2016-03-05 00:49:30",1429950,4.319,162.4,7.226,1.395,15.51,104.0177,9.56,10.81,29.02,0,110.3,13.17,10.34,124.4
"2016-03-05 00:50:00",1429951,3.685,151.1,7.237,1.05,13.51,104.0084,9.54,10.68,28.72,0,110.3,13.17,10.32,113.1
"2016-03-05 00:50:30",1429952,3.303,147.1,2.005,0.115,12.37,104.0029,9.52,10.59,28.58,0,110.3,13.22,10.31,109.1
"2016-03-05 00:51:00",1429953,3.295,147.9,1.992,0.075,12.45,103.9987,9.51,10.59,28.68,0,110.3,13.22,10.30,109.9
"2016-03-05 00:51:30",1429954,2.852,146.6,2.528,0.165,12.78,104.0002,9.51,10.57,28.72,0,110.3,13.22,10.30,108.6
"2016-03-05 00:52:00",1429955,3.712,145.8,7.287,1.258,14.45,104.0022,9.52,10.62,28.69,0,110.3,13.17,10.30,107.8
"2016-03-05 00:52:30",1429956,4.07,149.6,7.932,1.427,15.62,104.006,9.53,10.8,28.82,0,110.3,13.18,10.31,111.6
"2016-03-05 00:53:00",1429957,4.536,152.4,7.803,1.374,16.23,104.0087,9.54,10.75,28.84,0,110.3,13.18,10.32,114.4
"2016-03-05 00:53:30",1429958,3.944,146,7.317,1.365,15,104.0116,9.54,10.73,28.75,0,110.3,13.17,10.33,108.0
"2016-03-05 00:54:00",1429959,3.431,147.8,8.47,1.232,14.42,104.0166,9.56,10.64,28.67,0,110.3,13.17,10.34,109.8
"2016-03-05 00:54:30",1429960,2.585,139,2.959,0.218,12.45,104.0159,9.55,10.54,28.6,0,110.3,13.22,10.34,101.0
"2016-03-05 00:55:00",1429961,2.475,141.3,2.705,0.096,12.41,104.0111,9.54,10.53,28.59,0,110.3,13.22,10.33,103.3
"2016-03-05 00:55:30",1429962,2.342,143.3,1.607,0.063,12.7,104.0098,9.54,10.52,28.62,0,110.3,13.22,10.32,105.3
"2016-03-05 00:56:00",1429963,2.546,145,2.709,0.599,13.19,104.0054,9.53,10.51,28.59,0,110.3,13.18,10.31,107.0
"2016-03-05 00:56:30",1429964,3.92,149.2,7.273,1.399,15.13,103.9953,9.5,10.7,28.82,0,110.3,13.18,10.29,111.2
"2016-03-05 00:57:00",1429965,4.213,161.3,8.81,1.38,16.44,103.9936,9.5,10.75,29.04,0,110.3,13.18,10.28,123.3
"2016-03-05 00:57:30",1429966,3.988,156.5,6.167,1.494,15.37,103.9942,9.5,10.69,29.05,0,110.3,13.18,10.28,118.5
"2016-03-05 00:58:00",1429967,4.098,159.5,8.25,1.333,15.47,103.9959,9.5,10.66,29.04,0,110.3,13.17,10.29,121.5
"2016-03-05 00:58:30",1429968,2.462,155.7,5.707,0.165,12.42,103.9959,9.5,10.49,29.01,0,110.3,13.22,10.29,117.7
"2016-03-05 00:59:00",1429969,2.822,170.5,2.149,0.076,12.3,103.9928,9.5,10.47,29.24,0,110.3,13.22,10.28,132.5
"2016-03-05 00:59:30",1429970,2.789,170.8,2.373,0.075,12.36,103.9844,9.47,10.49,29.48,0,110.2,13.22,10.26,132.8
"2016-03-05 01:00:00",1429971,2.847,173.3,2.85,0.153,12.69,103.9787,9.46,10.47,29.6,0,110.2,13.22,10.24,135.3
"2016-03-05 01:00:30",1429972,3.156,175.6,5.676,1.082,13.77,103.9688,9.43,10.55,29.8,0,110.2,13.17,10.22,137.6
"2016-03-05 01:01:00",1429973,4.277,180.7,8.02,1.41,16.49,103.9621,9.42,10.69,30.05,0,110.2,13.17,10.20,142.7
"2016-03-05 01:01:30",1429974,4.225,177.2,7.175,1.418,15.9,103.9621,9.42,10.62,30.06,0,110.2,13.17,10.20,139.2
"2016-03-05 01:02:00",1429975,4.059,173.9,6.948,1.391,15.36,103.9621,9.42,10.61,30.12,0,110.2,13.17,10.20,135.9
"2016-03-05 01:02:30",1429976,3.182,169.7,3.891,0.986,12.9,103.9561,9.4,10.43,29.99,0,110.2,13.17,10.19,131.7
"2016-03-05 01:03:00",1429977,2.674,164,2.027,0.074,12.15,103.9497,9.39,10.41,30.02,0,110.2,13.22,10.17,126.0
"2016-03-05 01:03:30",1429978,2.602,165.5,0.901,0.064,12.28,103.9389,9.36,10.4,29.99,0,110.2,13.23,10.14,127.5
"2016-03-05 01:04:00",1429979,2.739,166.4,1.109,0.056,12.4,103.9319,9.34,10.39,30.05,0,110.2,13.23,10.12,128.4
"2016-03-05 01:04:30",1429980,2.981,165.2,4.909,0.872,13.7,103.9282,9.33,10.48,30.17,0,110.2,13.18,10.12,127.2
"2016-03-05 01:05:00",1429981,4.472,169.2,7.073,1.427,16.39,103.9282,9.33,10.62,30.38,0,110.2,13.18,10.12,131.2
"2016-03-05 01:05:30",1429982,4.741,173.4,7.277,1.35,16.48,103.9265,9.33,10.59,30.42,0,110.2,13.18,10.11,135.4
"2016-03-05 01:06:00",1429983,4.399,172.4,6.584,1.544,15.31,103.9161,9.3,10.5,30.44,0,110.2,13.18,10.08,134.4
"2016-03-05 01:06:30",1429984,2.984,162,4.252,0.708,12.84,103.9037,9.27,10.42,30.42,0,110.2,13.18,10.05,124.0
"2016-03-05 01:07:00",1429985,2.911,160.8,1.24,0.136,12.12,103.8955,9.25,10.32,30.32,0,110.2,13.23,10.03,122.8
"2016-03-05 01:07:30",1429986,3.109,162.9,0.931,0.039,12.4,103.8967,9.25,10.32,30.37,0,110.2,13.23,10.03,124.9
"2016-03-05 01:08:00",1429987,3.049,163.1,1.146,0.101,12.6,103.8996,9.26,10.3,30.4,0,110.2,13.23,10.04,125.1
"2016-03-05 01:08:30",1429988,3.75,170.6,7.961,1.277,14.09,103.8973,9.25,10.4,30.53,0,110.2,13.19,10.04,132.6
"2016-03-05 01:09:00",1429989,4.419,173.4,6.106,1.348,15.04,103.8927,9.24,10.48,30.68,0,110.2,13.19,10.02,135.4
"2016-03-05 01:09:30",1429990,4.468,174,7.15,1.416,16,103.8897,9.23,10.53,30.77,0,110.2,13.19,10.02,136.0
"2016-03-05 01:10:00",1429991,4.875,172.4,6.973,1.338,15.76,103.8884,9.23,10.45,30.71,0,110.2,13.19,10.01,134.4
"2016-03-05 01:10:30",1429992,3.852,171.5,6.45,1.141,13.7,103.8882,9.23,10.35,30.69,0,110.2,13.19,10.01,133.5
"2016-03-05 01:11:00",1429993,3.221,166.5,1.326,0.06,12.12,103.878,9.2,10.24,30.7,0,110.2,13.23,9.99,128.5
"2016-03-05 01:11:30",1429994,3.53,166.9,2.652,0.142,12.29,103.8801,9.21,10.22,30.7,0,110.2,13.23,9.99,128.9
"2016-03-05 01:12:00",1429995,4.017,172.8,4.329,0.846,12.87,103.8845,9.22,10.22,30.73,0,110.2,13.19,10.00,134.8
"2016-03-05 01:12:30",1429996,4.31,175.5,5.945,1.167,14.39,103.8848,9.22,10.39,30.94,0,110.2,13.19,10.00,137.5
"2016-03-05 01:13:00",1429997,4.488,177.9,5.972,1.133,14.09,103.8818,9.21,10.31,30.87,0,110.2,13.19,10.00,139.9
"2016-03-05 01:13:30",1429998,5.524,187,7.162,1.388,15.94,103.8773,9.2,10.45,30.97,0,110.2,13.19,9.98,149.0
"2016-03-05 01:14:00",1429999,5.158,187.6,7.273,1.417,15.5,103.8771,9.2,10.45,30.99,0,110.2,13.19,9.98,149.6
"2016-03-05 01:14:30",1430000,3.969,179.9,4.31,0.999,12.65,103.8755,9.2,10.19,30.76,0,110.2,13.19,9.98,141.9
"2016-03-05 01:15:00",1430001,3.391,183.2,1.993,0.11,12.12,103.8746,9.19,10.18,30.74,0,110.2,13.23,9.98,145.2
"2016-03-05 01:15:30",1430002,3.05,177.5,1.655,0.161,12.24,103.8749,9.19,10.17,30.75,0,110.2,13.23,9.98,139.5
"2016-03-05 01:16:00",1430003,3.462,178,6.023,1.068,13.56,103.8747,9.19,10.24,30.82,0,110.2,13.18,9.98,140.0
"2016-03-05 01:16:30",1430004,4.244,179.7,7.588,1.416,15.42,103.8654,9.17,10.3,30.89,0,110.2,13.18,9.95,141.7
"2016-03-05 01:17:00",1430005,2.693,172.1,1.053,0.06,12.74,103.8621,9.16,10.17,30.74,0,110.2,13.23,9.95,134.1
"2016-03-05 01:17:30",1430006,4.178,178.8,7.971,1.468,15.27,103.8612,9.16,10.37,30.94,0,110.2,13.18,9.94,140.8
"2016-03-05 01:18:00",1430007,4.397,177.9,7.718,1.419,15.9,103.8618,9.16,10.4,30.95,0,110.2,13.18,9.94,139.9
"2016-03-05 01:18:30",1430008,3.146,172.1,8.02,1.124,14,103.8618,9.16,10.23,30.81,0,110.2,13.18,9.94,134.1
"2016-03-05 01:19:00",1430009,2.5,167.5,1.876,0.094,12.42,103.8618,9.16,10.15,30.67,0,110.2,13.23,9.94,129.5
"2016-03-05 01:19:30",1430010,2.708,167,0.934,0.106,12.43,103.8618,9.16,10.14,30.62,0,110.2,13.23,9.94,129.0
"2016-03-05 01:20:00",1430011,3.643,171.9,6.689,1.221,14.18,103.8618,9.16,10.26,30.62,0,110.2,13.2,9.94,133.9
"2016-03-05 01:20:30",1430012,3.626,171.9,6.399,1.224,14.39,103.8612,9.16,10.3,30.61,0,110.2,13.2,9.94,133.9
"2016-03-05 01:21:00",1430013,3.205,173.1,4.743,0.977,13.63,103.8609,9.16,10.2,30.59,0,110.2,13.2,9.94,135.1
"2016-03-05 01:21:30",1430014,3.843,175.9,7.149,1.376,14.55,103.8592,9.15,10.24,30.68,0,110.2,13.2,9.94,137.9
"2016-03-05 01:22:00",1430015,4.563,182.9,7.259,1.401,16.27,103.8525,9.14,10.39,30.87,0,110.2,13.2,9.92,144.9
"2016-03-05 01:22:30",1430016,4.03,180.5,7.187,1.395,14.93,103.8502,9.13,10.28,30.84,0,110.2,13.2,9.91,142.5
"2016-03-05 01:23:00",1430017,2.965,174.7,0.574,0.052,12.53,103.8468,9.12,10.13,30.81,0,110.2,13.25,9.91,136.7
"2016-03-05 01:23:30",1430018,2.928,175.6,1.064,0.067,12.39,103.8451,9.12,10.13,30.88,0,110.2,13.25,9.90,137.6
"2016-03-05 01:24:00",1430019,3.146,175.5,4.5,0.861,13.24,103.8451,9.12,10.21,30.98,0,110.2,13.2,9.90,137.5
"2016-03-05 01:24:30",1430020,4.32,182,7.186,1.46,15.06,103.8448,9.12,10.25,31.02,0,110.2,13.2,9.90,144.0
"2016-03-05 01:25:00",1430021,2.912,172.5,1.682,0.067,12.68,103.8448,9.12,10.13,30.92,0,110.2,13.25,9.90,134.5
"2016-03-05 01:25:30",1430022,4.111,176.2,7.143,1.374,14.67,103.8448,9.12,10.3,31.06,0,110.2,13.2,9.90,138.2
"2016-03-05 01:26:00",1430023,4.123,176.2,7.332,1.404,14.3,103.8448,9.12,10.24,30.97,0,110.2,13.2,9.90,138.2
"2016-03-05 01:26:30",1430024,3.939,173.7,6.617,1.323,14.23,103.8448,9.12,10.29,31.01,0,110.2,13.2,9.90,135.7
"2016-03-05 01:27:00",1430025,4.041,174.1,7.055,1.35,14.37,103.8448,9.12,10.25,30.93,0,110.2,13.2,9.90,136.1
"2016-03-05 01:27:30",1430026,3.123,168.1,0.869,0.044,12.54,103.844,9.12,10.1,30.82,0,110.2,13.25,9.90,130.1
"2016-03-05 01:28:00",1430027,3.975,169.7,7.088,1.23,13.91,103.8434,9.11,10.23,30.94,0,110.2,13.2,9.90,131.7
"2016-03-05 01:28:30",1430028,4.673,173.4,6.781,1.416,15.33,103.8395,9.1,10.28,30.95,0,110.2,13.2,9.89,135.4
"2016-03-05 01:29:00",1430029,3.909,169.5,5.716,1.108,13.69,103.8372,9.1,10.22,30.89,0,110.2,13.2,9.88,131.5
"2016-03-05 01:29:30",1430030,4.529,170.1,6.932,1.392,14.21,103.8347,9.09,10.22,30.93,0,110.2,13.2,9.88,132.1
"2016-03-05 01:30:00",1430031,4.194,167.7,7.011,1.233,13.44,103.8333,9.09,10.21,30.9,0,110.2,13.2,9.87,129.7
"2016-03-05 01:30:30",1430032,4.771,169.8,7.194,1.382,14.69,103.8322,9.08,10.28,30.99,0,110.2,13.2,9.87,131.8
"2016-03-05 01:31:00",1430033,4.595,166.2,7.155,1.31,13.9,103.834,9.09,10.2,30.93,0,110.2,13.2,9.87,128.2
"2016-03-05 01:31:30",1430034,4.509,163.9,6.267,1.224,14.01,103.8329,9.09,10.15,30.91,0,110.2,13.2,9.87,125.9
"2016-03-05 01:32:00",1430035,4.761,163.6,6.273,1.274,13.95,103.8323,9.09,10.23,31.02,0,110.2,13.2,9.87,125.6
"2016-03-05 01:32:30",1430036,4.982,161.1,7.195,1.238,13.93,103.8344,9.09,10.23,31.01,0,110.2,13.2,9.87,123.1
"2016-03-05 01:33:00",1430037,5.862,163.6,7.536,1.4,15.07,103.8344,9.09,10.24,31.02,0,110.2,13.2,9.87,125.6
"2016-03-05 01:33:30",1430038,5.166,159.5,6.35,1.257,13.79,103.8355,9.09,10.21,30.97,0,110.2,13.2,9.88,121.5
"2016-03-05 01:34:00",1430039,5.052,159.5,5.857,1.146,13.17,103.8367,9.1,10.13,30.78,0,110.2,13.2,9.88,121.5
"2016-03-05 01:34:30",1430040,5.518,161.4,6.699,1.34,14.77,103.8385,9.1,10.28,30.88,0,110.1,13.2,9.88,123.4
"2016-03-05 01:35:00",1430041,4.935,159.2,6.18,1.164,13.91,103.839,9.1,10.22,30.83,0,110.2,13.2,9.89,121.2
"2016-03-05 01:35:30",1430042,5.839,164,7.147,1.437,15.48,103.8426,9.11,10.24,30.92,0,110.2,13.2,9.90,126.0
"2016-03-05 01:36:00",1430043,4.491,158.4,5.007,0.991,13.41,103.842,9.11,10.24,30.9,0,110.2,13.2,9.89,120.4
"2016-03-05 01:36:30",1430044,5.764,161.5,7.266,1.41,15.09,103.8417,9.11,10.26,30.93,0,110.2,13.2,9.89,123.5
"2016-03-05 01:37:00",1430045,5.133,154,7.345,1.135,13.78,103.8429,9.11,10.21,30.66,0,110.2,13.2,9.90,116.0
"2016-03-05 01:37:30",1430046,4.657,147.9,0.844,0.092,12.48,103.8432,9.11,10.11,30.45,0,110.2,13.25,9.90,109.9
"2016-03-05 01:38:00",1430047,5.445,156.3,6.793,1.238,13.91,103.8432,9.11,10.23,30.61,0,110.2,13.2,9.90,118.3
"2016-03-05 01:38:30",1430048,5.969,159.5,7.072,1.338,14.76,103.8458,9.12,10.28,30.7,0,110.2,13.21,9.90,121.5
"2016-03-05 01:39:00",1430049,6.231,165.3,7.413,1.404,15,103.8473,9.12,10.22,30.76,0,110.2,13.2,9.91,127.3
"2016-03-05 01:39:30",1430050,6.722,162.2,7.025,1.374,14.43,103.8508,9.13,10.28,31.02,0,110.2,13.2,9.92,124.2
"2016-03-05 01:40:00",1430051,7.475,163.1,7.22,1.405,15.55,103.8525,9.14,10.28,31.08,0,110.2,13.2,9.92,125.1
"2016-03-05 01:40:30",1430052,5.93,154.5,1.914,0.555,12.43,103.8511,9.13,10.18,30.98,0,110.2,13.21,9.92,116.5
"2016-03-05 01:41:00",1430053,6.011,158.4,3.733,0.791,12.58,103.8537,9.14,10.09,30.86,0,110.2,13.21,9.92,120.4
"2016-03-05 01:41:30",1430054,6.56,164.7,7.355,1.404,14.77,103.8537,9.14,10.3,30.98,0,110.2,13.21,9.92,126.7
"2016-03-05 01:42:00",1430055,6.796,164.3,7.452,1.398,15.15,103.854,9.14,10.2,30.86,0,110.2,13.21,9.92,126.3
"2016-03-05 01:42:30",1430056,6.504,163.3,6.616,1.318,14.82,103.854,9.14,10.31,31.03,0,110.2,13.21,9.92,125.3
"2016-03-05 01:43:00",1430057,7.037,166,7.026,1.465,15.47,103.8552,9.14,10.29,31.06,0,110.2,13.2,9.93,128.0
"2016-03-05 01:43:30",1430058,6.484,162,6.432,1.228,13.63,103.8552,9.14,10.2,31.02,0,110.2,13.21,9.93,124.0
"2016-03-05 01:44:00",1430059,5.466,157.2,0.822,0.069,12,103.8566,9.15,10.11,30.96,0,110.2,13.25,9.93,119.2
"2016-03-05 01:44:30",1430060,5.943,160.3,6.259,1.241,13.68,103.857,9.15,10.21,31.09,0,110.2,13.21,9.93,122.3
"2016-03-05 01:45:00",1430061,6.455,163,6.872,1.341,14.6,103.8561,9.15,10.23,31.14,0,110.2,13.21,9.93,125.0
"2016-03-05 01:45:30",1430062,7.278,167.2,7.143,1.387,15.86,103.8527,9.14,10.32,31.22,0,110.2,13.21,9.92,129.2
"2016-03-05 01:46:00",1430063,6.592,163.7,6.776,1.406,14.4,103.8528,9.14,10.2,31.15,0,110.2,13.21,9.92,125.7
"2016-03-05 01:46:30",1430064,6.564,167,7.125,1.386,14.66,103.8445,9.12,10.29,31.23,0,110.2,13.2,9.90,129.0
"2016-03-05 01:47:00",1430065,5.497,161.8,3.654,0.736,12.49,103.8453,9.12,10.09,31.05,0,110.2,13.21,9.90,123.8
"2016-03-05 01:47:30",1430066,5.283,160,0.529,0.039,12.28,103.8408,9.11,10.07,31.03,0,110.2,13.25,9.89,122.0
"2016-03-05 01:48:00",1430067,6.008,162.2,6.3,1.217,13.55,103.8354,9.09,10.17,31.05,0,110.2,13.21,9.88,124.2